Capitan Corbeta CA Curbelo International Airport


Codes: SULS/PDP
Name: Capitan Corbeta CA Curbelo International Airport
City: Punta del Este
Country: Uruguay
Elevation: 95 ft.
Website:
Wikipedia:

Photos at Capitan Corbeta CA Curbelo International Airport


   Photos courtesy of SpottingLog. You can add your own sightings and photos by signing up for a free trial today.



No photos found.

Weather at Capitan Corbeta CA Curbelo International Airport


Time (UTC)DescriptionTempratureWindCloud coverageVisibilityPressureHumidity
23-May-2024 18:00Overcast Clouds16°C16 mph, SE100%10000m1016hPa73%
23-May-2024 21:00Overcast Clouds15°C18 mph, SE100%10000m1016hPa73%
24-May-2024 00:00Light Rain14°C20 mph, S100%10000m1017hPa75%
24-May-2024 03:00Light Rain12°C18 mph, S97%10000m1019hPa69%
24-May-2024 06:00Moderate Rain11°C13 mph, S98%10000m1020hPa83%
24-May-2024 09:00Light Rain11°C13 mph, S100%10000m1019hPa74%
24-May-2024 12:00Light Rain11°C13 mph, S100%10000m1020hPa83%
24-May-2024 15:00Light Rain12°C20 mph, S100%10000m1020hPa77%
24-May-2024 18:00Light Rain11°C22 mph, SW100%10000m1020hPa78%
24-May-2024 21:00Light Rain11°C22 mph, S99%10000m1021hPa79%
25-May-2024 00:00Light Rain10°C22 mph, S100%10000m1024hPa75%
25-May-2024 03:00Light Rain10°C20 mph, S100%10000m1025hPa68%
25-May-2024 06:00Light Rain10°C16 mph, S100%10000m1026hPa63%
25-May-2024 09:00Light Rain10°C16 mph, S100%10000m1026hPa61%
25-May-2024 12:00Broken Clouds10°C18 mph, S68%10000m1028hPa57%
25-May-2024 15:00Few Clouds11°C16 mph, S14%10000m1030hPa57%
25-May-2024 18:00Broken Clouds11°C9 mph, S56%10000m1029hPa56%
25-May-2024 21:00Light Rain10°C9 mph, S100%10000m1030hPa78%
26-May-2024 00:00Light Rain10°C11 mph, S100%10000m1030hPa68%
26-May-2024 03:00Overcast Clouds9°C9 mph, SE97%10000m1031hPa65%
26-May-2024 06:00Overcast Clouds9°C7 mph, SE99%10000m1030hPa60%
26-May-2024 09:00Overcast Clouds9°C4 mph, SE100%10000m1030hPa61%
26-May-2024 12:00Overcast Clouds10°C2 mph, NE97%10000m1031hPa59%
26-May-2024 15:00Broken Clouds12°C7 mph, SE69%10000m1031hPa50%
26-May-2024 18:00Broken Clouds12°C11 mph, SE76%10000m1029hPa59%
26-May-2024 21:00Broken Clouds10°C9 mph, SE77%10000m1029hPa78%
27-May-2024 00:00Broken Clouds10°C7 mph, E74%10000m1029hPa76%
27-May-2024 03:00Overcast Clouds11°C7 mph, E97%10000m1028hPa78%
27-May-2024 06:00Light Rain10°C4 mph, E91%10000m1027hPa82%
27-May-2024 09:00Light Rain11°C4 mph, E92%10000m1026hPa81%
27-May-2024 12:00Light Rain12°C4 mph, NE96%10000m1026hPa79%
27-May-2024 15:00Light Rain12°C4 mph, SW100%10000m1026hPa81%
27-May-2024 18:00Light Rain12°C2 mph, SE100%10000m1024hPa85%
27-May-2024 21:00Light Rain11°C2 mph, S100%10000m1024hPa90%
28-May-2024 00:00Overcast Clouds10°C2 mph, SW88%10000m1024hPa86%
28-May-2024 03:00Broken Clouds11°C7 mph, SW70%10000m1023hPa88%
28-May-2024 06:00Scattered Clouds11°C7 mph, SW40%10000m1023hPa90%
28-May-2024 09:00Clear Sky11°C11 mph, SW6%10000m1023hPa91%
28-May-2024 12:00Scattered Clouds13°C9 mph, S38%10000m1024hPa91%
28-May-2024 15:00Light Rain14°C11 mph, S58%10000m1024hPa82%